DW9005 Weather Reports


time (UTC)temp
C
wind
direction
speed
KPH
gust
KPH
rain 1hr
cm
rain 24hr
cm
rain mn
cm
humidity
%
barometer
mb
20260503184526 20 270 0.0 0.0 0.00 0.00 0.00 44 1021.3
20260503183026 19 179 0.0 0.0 0.00 0.00 0.00 41 1021.4
20260503181507 19 293 0.0 0.0 0.00 0.00 0.00 45 1021.6
20260503180006 18 257 0.0 0.0 0.00 0.00 0.00 45 1021.7
20260503174605 18 188 0.0 0.0 0.00 0.00 0.00 44 1021.8
20260503173046 18 339 0.0 0.0 0.00 0.00 0.00 44 1021.9
20260503171543 18 293 0.0 0.0 0.00 0.00 0.00 48 1022.1
20260503081527 6 355 0.0 0.0 0.00 0.00 0.00 93 1020.1
20260503080108 6 355 0.0 0.0 0.00 0.00 0.00 93 1020.0
20260503071538 7 355 0.0 0.0 0.00 0.00 0.00 93 1019.6
20260503054557 7 355 0.0 0.0 0.00 0.00 0.00 92 1019.5
20260503053024 7 355 0.0 0.0 0.00 0.00 0.00 92 1019.4
20260503051515 8 355 0.0 0.0 0.00 0.00 0.00 91 1019.1
20260503050057 8 355 0.0 0.0 0.00 0.00 0.00 91 1018.9
20260503044554 8 21 0.0 0.0 0.00 0.00 0.00 90 1018.5
20260503043045 8 21 0.0 0.0 0.00 0.00 0.00 90 1018.5
20260503041532 8 21 0.0 0.0 0.00 0.00 0.00 89 1018.3
20260503040019 9 21 0.0 0.0 0.00 0.00 0.00 88 1018.3
20260503034518 9 21 0.0 0.0 0.00 0.00 0.00 86 1018.2
20260503033015 9 21 0.0 0.0 0.00 0.00 0.00 84 1018.2
20260503031514 10 21 0.0 0.0 0.00 0.00 0.00 83 1018.1
20260503030011 10 21 0.0 0.0 0.00 0.00 0.00 82 1018.1
20260503024509 10 21 0.0 0.0 0.00 0.00 0.00 80 1017.9
20260503023006 11 21 0.0 0.0 0.00 0.00 0.00 79 1017.8
20260503021503 11 21 0.0 0.0 0.00 0.00 0.00 77 1017.6
20260503020043 11 21 0.0 0.0 0.00 0.00 0.00 75 1017.4
20260503014549 12 21 0.0 0.0 0.00 0.00 0.00 73 1017.2
20260503013034 12 21 0.0 0.0 0.00 0.00 0.00 70 1016.9
20260503011521 13 21 0.0 0.0 0.00 0.00 0.00 66 1016.7
20260503010004 14 21 0.0 0.0 0.00 0.00 0.00 61 1016.6
20260503004504 15 21 0.0 0.0 0.00 0.00 0.00 54 1016.5
20260503003047 16 21 0.0 0.0 0.00 0.00 0.00 51 1016.3
20260503001548 17 15 0.0 0.0 0.00 0.00 0.00 46 1016.1
20260503000027 17 327 0.0 0.0 0.00 0.00 0.00 44 1015.9
20260502234537 18 342 0.0 0.0 0.00 0.00 0.00 41 1015.7
20260502233026 18 297 0.0 0.0 0.00 0.00 0.00 39 1015.6
20260502231508 18 5 0.0 0.0 0.00 0.00 0.00 39 1015.6
20260502230051 18 271 0.0 0.0 0.00 0.00 0.00 40 1015.6
20260502224550 19 269 0.0 0.0 0.00 0.00 0.00 39 1015.7
20260502223040 18 296 0.0 0.0 0.00 0.00 0.00 41 1015.6
20260502221532 18 332 0.0 0.0 0.00 0.00 0.00 41 1015.5
20260502220021 19 291 0.0 0.0 0.00 0.00 0.00 39 1015.4
20260502214514 19 337 0.0 0.0 0.00 0.00 0.00 40 1015.3
20260502213003 19 284 0.0 0.0 0.00 0.00 0.00 40 1015.3
20260502211503 20 35 0.0 0.0 0.00 0.00 0.00 40 1015.2
20260502210006 19 333 0.0 0.0 0.00 0.00 0.00 41 1015.3
20260502204502 20 292 0.0 0.0 0.00 0.00 0.00 38 1015.3
20260502203059 19 281 0.0 0.0 0.00 0.00 0.00 38 1015.4
20260502201601 19 224 0.0 0.0 0.00 0.00 0.00 38 1015.5
20260502200100 19 282 0.0 0.0 0.00 0.00 0.00 39 1015.5
20260502194603 19 333 0.0 0.0 0.00 0.00 0.00 37 1015.5
20260502193057 19 329 0.0 0.0 0.00 0.00 0.00 40 1015.5
20260502191539 18 314 0.0 0.0 0.00 0.00 0.00 43 1015.5
20260502190042 18 312 0.0 0.0 0.00 0.00 0.00 43 1015.7